Showing default

TEMPSAT 1, 1512

Orbit data source: Space-Track

TEMPSAT 1, 1512 is a payload satellite owned by NRL (US) in LEO that was launched on Fri, 13 Aug 1965 UTC via a THOR ABLESTAR launch vehicle from the Air Force Western Test Range (AFWTR). Payload-class satellites include a variety of spacecraft equipped with specific instruments for various scientific and technological missions. These include communications satellites like Starlink; space stations such as the ISS; scientific satellites like the Hubble; Earth observation satellites from companies like Planet Labs, Umbra, and HawkEye 360; GPS; miniature CubeSats for education and research; and military/defense satellites.

Loading next visibility...
Identifier
1512, 1965-065E
Orbit
LEO
Country
Flag of USUS
Related business
Manufacturer
NRL
Mission
Operational spacecraft
Bus & Motor
NRL 14", Unknown motor
Mass
9 kg wet, 9 kg dry
Launch date (UTC)
1965-08-13 (61 years ago)
Launch vehicle
THOR ABLESTAR
Launch site
Air Force Western Test Range (AFWTR)
Object type
Payload
Rocket body
Debris
Shape & HBR
SPHERE, 0.2 m
Radar Cross Section
Medium (>0.1 m² and <1 m²)

Expand to show TLE details & history
Last TLE update: 10 hours ago

TLE from 10 hours ago
0 TEMPSAT 1
1  1512U 65065E   26237.90735416  .00000033  00000-0  47694-4 0  9996
2  1512  90.0020 212.6003 0071405  53.8404 334.4002 13.33597429969340
Epoch: 2026-08-25T21:46Z
TLE epoch observation values (Epoch: 2026-08-25T21:46:35.399Z)
Latitude
27.92326°
Longitude
-88.21622°
Altitude
1,088.386 km
Speed
7.334 km/s
True Right ascension
14h 10m 23s
True Declination
27° 47' 15"
Sunlit
Object was in daylight at epoch
Visualization orbit readout
Latitude
Unknown
Longitude
Unknown
Altitude
Unknown
Speed
Unknown
Apparent Right ascension
Unknown
Apparent Declination
Unknown
Sunlit
N/A
Visualization observer readout
Local Sidereal Time
23:19:07
Azimuth
Unknown
Elevation
Unknown
Doppler factor
Unknown
Orbital elements
Apogee altitude
1,183.912 km
Perigee altitude
1,076.684 km
Semi-major axis
7,508.435 km
Eccentricity
0.00714
Inclination
90.002°
RAAN
212.6003°
Arg. of periapsis
53.8404°
True anomaly
334.04379°
Mean anomaly
334.4002°
Eccentric anomaly
334.22228°
Mean motion
3.33595 °/min
Orbital period
107.92 mins
BSTAR
0.000047694
Loading maneuver chart data...
Computing Atmospheric mass density...
Loading historical data...
Loading historical data...
Loading historical data...
Loading historical data...
Loading historical data...
Loading historical data...
Loading historical data...

Documentation

Showing up to 5 results
|